User: anonymous   Login
Location: Caltech
(34.1382°N, 118.1253°W)
Time: 16:42:06
(UTC-07:00)
Language:

Meteor 2-4 Rocket - Orbit

View from above orbital plane
View from above orbital plane
View from above satellite
View from above satellite

Ground track
Ground track

The orbit data is extracted from the following two-line orbital elements,

1 11289U 79021B   15154.15338891  .00000110  00000-0  52066-4 0  9999
2 11289 081.2451 170.9762 0075699 186.5435 173.4756 14.11503536865735
Epoch (UTC): 03 June 2015 03:40:52
Eccentricity: 0.0075699
inclination: 81.2451°
perigee height: 799 km
apogee height: 909 km
right ascension of ascending node: 170.9762°
argument of perigee: 186.5435°
revolutions per day: 14.11503536
mean anomaly at epoch: 173.4756°
orbit number at epoch: 86573

The dashed part of the orbit path shows where the satellite is in the earth's shadow,  

DLR